FALCON 9 R/B (44869 NORAD) Tracking and Keplerian Element Data

This shows tracking and keplerian element data for the satellite.

Feedback or suggestion? Click here.




ElementValue
Catalog44869
NameFALCON 9 R/B
Epoch Orbit119
Epoch Day14.84687274
Epoch Year2020
RAAN258.9411
Inclination26.9035
Eccentricity0.601836
Argument of Perigee213.7682
Mean Anonmoly86.7554
Mean Motion4.03389432
Decay Rate2.872E-05
L11 44869U 19091B 20014.84687274 .00002872 00000-0 37212-3 0 9991
L22 44869 26.9035 258.9411 6018360 213.7682 86.7554 4.03389432 1193

Live tracking and technical data element details for FALCON 9 R/B (NORAD 44869). FALCON 9 R/B can be tracked NOW for your location showing map with azimuth and elevation plus other details from your city location.

Track the satellite on the map from your city or location and see movement details for azimuth, elevation, latitude, longitude, range, height, and movement on the map or in text.







IsCatalogInMostPopularTable: catalog: 44869, numindb: 45
Update: records affected: 1



GetName: 44869 FALCON 9 R/B

Hit Count: updated at: Fri, 03 Apr 2020 23:43:00 GMT